Train No Train Name From To Distance Stops avg_speed (km/hr)
22405 Bhagalpur Garib Rath Bhagalpur Anand Vihar Terminus 1215 19 65
A Train's "Departure" Station, "Arrival" Station and "Distance" may vary. Although we have verified some of this data from enquiry.indianrail.gov.in
Train No Start Date (yyyy-mm-dd) Status Delay Time Source
22405 2017-01-03 Late 22 hours 38 minutes Source
22405 2017-01-05 Late 50 hours 38 minutes Source
22405 2017-01-07 Late 70 hours 40 minutes Source
22405 2017-01-12 Late 13 hours 25 minutes Source
22405 2017-01-14 Late 21 hours 06 minutes Source
22405 2017-01-17 Late 14 hours 10 minutes Source
22405 2017-01-19 Late 26 hours 00 minutes Source
22405 2017-01-24 Late 11 hours 15 minutes Source
22405 2017-01-26 Late 23 hours 04 minutes Source
22405 2017-01-28 Late 34 hours 35 minutes Source
22405 2017-01-31 Late 24 hours 25 minutes Source
22405 2017-02-04 Late 11 hours 33 minutes Source
22405 2017-02-07 Late 04 hours 10 minutes Source
22405 2017-02-09 Late 11 hours 51 minutes Source
22405 2017-02-11 Late 19 hours 13 minutes Source
22405 2017-02-14 Late 09 hours 00 minutes Source
22405 2017-02-16 Late 16 hours 03 minutes Source
22405 2017-02-18 Late 37 hours 10 minutes Source
22405 2017-02-21 Late 23 hours 23 minutes Source
22405 2017-02-23 Late 36 hours 55 minutes Source
22405 2017-02-25 Late 43 hours 10 minutes Source
22405 2017-03-02 Late 06 hours 45 minutes Source
22405 2017-03-04 Late 13 hours 37 minutes Source
22405 2017-03-07 Late 07 hours 50 minutes Source
22405 2017-03-09 Late 17 hours 45 minutes Source
22405 2017-03-11 Late 25 hours 40 minutes Source
22405 2017-03-14 Late 04 hours 00 minutes Source
22405 2017-03-16 Late 09 hours 15 minutes Source
22405 2017-03-18 Late 18 hours 55 minutes Source
22405 2017-03-21 Late 02 hours 55 minutes Source
22405 2017-03-23 Late 12 hours 15 minutes Source
22405 2017-03-25 Late 20 hours 50 minutes Source
22405 2017-03-28 Late 06 hours 49 minutes Source
22405 2017-03-30 Late 16 hours 37 minutes Source
22405 2017-04-01 Late 25 hours 45 minutes Source
22405 2017-04-04 Late 04 hours 05 minutes Source
22405 2017-04-06 Late 05 hours 15 minutes Source
22405 2017-04-08 Late 10 hours 40 minutes Source
22405 2017-04-11 Late 09 hours 20 minutes Source
22405 2017-04-13 Late 18 hours 30 minutes Source
22405 2017-04-15 Late 23 hours 43 minutes Source
22405 2017-04-18 Late 06 hours 10 minutes Source
22405 2017-04-20 Late 13 hours 37 minutes Source
22405 2017-04-22 Late 24 hours 20 minutes Source
22405 2017-04-25 Late 03 hours 43 minutes Source
22405 2017-04-27 Late 05 hours 52 minutes Source
22405 2017-04-29 Late 13 hours 20 minutes Source
Page 1 of 1, showing 47 records out of 47 total